Regional Weather Roundup
Issued by NWS

Home | Current Version | Previous Version | Text Only | Print | Product List | Glossary On
Versions: 1 2 3 4 5 6 7 8 9 10 11 12 13 14 15 16 17 18 19 20 21 22 23 24 25 26 27 28 29 30 31 32 33 34 35 36 37 38 39 40 41 42 43 44 45 46 47 48 49 50
000
ASUS42 KFFC 011103
RWRGA
WEATHER ROUNDUP FOR GEORGIA
NATIONAL WEATHER SERVICE PEACHTREE CITY GA
600 AM EST SUN MAR 01 2015

NOTE: "FAIR" INDICATES FEW OR NO CLOUDS BELOW 12,000 FEET WITH NO
SIGNIFICANT WEATHER AND/OR OBSTRUCTIONS TO VISIBILITY.

* = USE WITH CAUTION. THE STATIONS MARKED WITH AN ASTERISK MAY NOT
REPORT WEATHER SUCH AS PRECIPITATION, FOG, OR THUNDER AND ARE NOT
QUALITY CONTROLLED BY NWS.

THE REMARK "TC" DENOTES TEMPERATURE READING IN DEGREES CELSIUS.

GAZ001>058-011200-
NORTH GEORGIA

CITY           SKY/WX    TMP DP  RH WIND       PRES   REMARKS
ATLANTA        DRIZZLE   37  34  89 E12       30.49R FOG     WCI  29
ATHENS         CLOUDY    35  32  88 NE8       30.51S FOG     WCI  29
CHAMBLEE       CLOUDY    36  32  85 CALM      30.49R
PEACHTREE CITY CLOUDY    39  35  86 VRB5      30.49R FOG
ROME           CLOUDY    40  32  73 E7        30.45S
WEST ATLANTA   CLOUDY    38  31  76 E10       30.49R WCI  31
GAINESVILLE    CLOUDY    34  32  92 NE9       30.50S FOG     WCI  27
CARTERSVILLE   CLOUDY    39  30  70 E9G20     30.47S WCI  33


CITY           SKY/WX    TMP DP  RH WIND       PRES   REMARKS
DALTON*        CLOUDY    39  32  75 S6        30.45R WCI  35
MARIETTA       CLOUDY    37  33  87 E8        30.48R WCI  30
$$

GAZ059>098-102>109-011200-
CENTRAL GEORGIA

CITY           SKY/WX    TMP DP  RH WIND       PRES   REMARKS
AUGUSTA-BUSH   LGT RAIN  37  36  96 N6        30.53S FOG     WCI  32
AUGUSTA-DANIEL LGT RAIN  37  34  89 N7        30.52S FOG     WCI  32
COLUMBUS       LGT RAIN  42  40  92 E7        30.45R FOG
MACON          CLOUDY    39  38  96 NE9       30.49R FOG     WCI  33
ROBINS AFB     CLOUDY    40  39  94 NE7       30.49R


CITY           SKY/WX    TMP DP  RH WIND       PRES   REMARKS
LAGRANGE*      DRIZZLE   44  43  95 E5        30.45S
SYLVANIA*      DRIZZLE   39  39 100 NE7       30.50S WCI  34
MILLEDGEVILLE* CLOUDY    37  37 100 NE6       30.51R FOG     WCI  33
$$

GAZ099>101-110>166-011200-
SOUTH GEORGIA

CITY           SKY/WX    TMP DP  RH WIND       PRES   REMARKS
SAVANNAH       DRIZZLE   42  39  89 N6        30.49R FOG
VALDOSTA       CLOUDY    45  44  97 NE9       30.43R FOG
ALMA           CLOUDY    43  41  93 NE6       30.46R FOG
ST SIMONS      CLOUDY    46  45  96 N14G24    30.43R FOG
FT STEWART     LGT RAIN  42  40  92 N8        30.46R
ALBANY         CLOUDY    44  43  96 NE9       30.46R
HUNTER AFB     CLOUDY    43  41  93 N7        30.45R
MOODY AFB      CLOUDY    45  43  93 NE8       30.42R FOG
BRUNSWICK      CLOUDY    46  45  93 N8        30.44S


CITY           SKY/WX    TMP DP  RH WIND       PRES   REMARKS
BAINBRIDGE*    CLOUDY    46  46 100 E10       30.41S FOG
MOULTRIE*      CLOUDY    45  45 100 NE3       30.44R FOG
VIDALIA*       CLOUDY    41  41 100 NE7       30.48S FOG
WAYCROSS*      CLOUDY    47  47  97 NE7       30.45R FOG
DOUGLAS*       CLOUDY    45  43  93 NE10      30.46S FOG
$$


USA.gov is the U.S. government's official web portal to all federal, state and local government web resources and services.